Regional Weather Roundup
Issued by NWS Albany, NY

Home | Current Version | Previous Version | Graphics & Text | Print | Product List | Glossary Off
Versions: 1 2 3 4 5 6 7 8 9 10 11 12 13 14 15 16 17 18 19 20 21 22 23 24 25 26 27 28 29 30 31 32 33 34 35 36 37 38 39 40 41 42 43 44 45 46 47 48 49 50

000
ASUS41 KALY 221010
RWRALY

NEW YORK STATE HOURLY WEATHER ROUNDUP
NATIONAL WEATHER SERVICE ALBANY NY
500 AM EST THU FEB 22 2018

NOTE: "FAIR" INDICATES FEW OR NO CLOUDS BELOW 12,000 FEET WITH NO
SIGNIFICANT WEATHER AND/OR NO OBSTRUCTIONS TO VISIBILITY.

NYZ032-033-038>043-046>054-057>066-NYZ062>081-082-084-221100-
EAST


CITY           SKY/WX    TMP DP  RH WIND       PRES   REMARKS
ALBANY         CLOUDY    38  27  64 N6        30.60R WCI  33
GLENS FALLS    FAIR      33  23  66 NE8       30.62R WCI  26
POUGHKEEPSIE   CLOUDY    43  30  60 N12       30.57R
NEWBURGH       CLOUDY    43  34  70 NE12G21   30.57R
MONTGOMERY     CLOUDY    43  31  62 NE14      30.54R
WHITE PLAINS   LGT RAIN  42  38  85 N10       30.54R
ISLIP          CLOUDY    48  37  65 N12       30.51R
NEW YORK CITY  CLOUDY    49  36  61 N9        30.53R
CENTRAL PARK   CLOUDY    48  37  65 N8        30.57R
$$

NYZ005>009-017-018-044>046-055-056-221100-
CENTRAL


CITY           SKY/WX    TMP DP  RH WIND       PRES   REMARKS
FULTON         CLOUDY    34  32  92 NE3       30.62R
SYRACUSE       CLOUDY    33  30  88 SW3       30.62R
ROME           CLOUDY    32  30  92 NW3       30.62S
ELMIRA         CLOUDY    34  26  72 NE8       30.58S WCI  27
BINGHAMTON     MIX PCPN  31  26  82 N8        30.53S WCI  23
MONTICELLO     CLOUDY    37  32  82 N6        30.52R WCI  32
$$

NYZ026>034-041>043-087-221100-
NORTH


CITY           SKY/WX    TMP DP  RH WIND       PRES   REMARKS
WATERTOWN      FAIR      31  24  75 NE9       30.65R WCI  23
FORT DRUM      NOT AVBL
OGDENSBURG     FAIR      26  19  75 NE6       30.68S WCI  19
MASSENA        FAIR      24  12  60 NE3       30.71R
SARANAC LAKE   FLURRIES  24  19  81 NE5       30.55F WCI  18
PLATTSBURGH    FAIR      29  14  53 N10       30.67R WCI  20
$$

NYZ001>004-010>016-019>021-085-221100-
WEST


CITY           SKY/WX    TMP DP  RH WIND       PRES   REMARKS
NIAGARA FALLS  CLOUDY    31  23  72 NE7       30.63S WCI  24
BUFFALO        CLOUDY    30  25  81 NE8       30.62S WCI  22
DUNKIRK        CLOUDY    31  27  85 NE8       30.61F WCI  23
JAMESTOWN        N/A    N/A N/A N/A MISG        N/A
WELLSVILLE     CLOUDY    30  22  72 NE6       30.53F WCI  24
ROCHESTER      CLOUDY    32  28  85 N5        30.64S WCI  27
PENN YAN       CLOUDY    32  25  75 VRB5      30.60S WCI  27
$$

             KEY
       WCI = WIND CHILL INDEX
       VSB = VISIBILITY
       HX  = HEAT INDEX
$$



USA.gov is the U.S. government's official web portal to all federal, state and local government web resources and services.